This is the latest recevied weather packets stored in our database for station/object VE6HFD-WX. If no packets are shown the sender has not sent any weather packets the latest 10 day(s).
| Time | Temp. | Humidity | Pressure | Rain* | Wind** | Luminosity | Snow |
|---|---|---|---|---|---|---|---|
| 1788519940 | 5° C | 85% | 1006 hPa | 0 mm | - | - | - |
| 1788519640 | 5° C | 85% | 1006 hPa | 0 mm | - | - | - |
| 1788519310 | 5° C | 85% | 1006 hPa | 0 mm | - | - | - |
| 1788519010 | 5.56° C | 85% | 1006.1 hPa | 0 mm | - | - | - |
| 1788518680 | 5.56° C | 84% | 1006 hPa | 0 mm | - | - | - |
| 1788518380 | 5.56° C | 84% | 1006 hPa | 0 mm | - | - | - |
| 1788518050 | 5.56° C | 83% | 1006 hPa | 0 mm | - | - | - |
| 1788517720 | 6.11° C | 84% | 1006 hPa | 0 mm | - | - | - |
| 1788517420 | 6.11° C | 85% | 1006 hPa | 0 mm | - | - | - |
| 1788517120 | 5.56° C | 83% | 1005.9 hPa | 0 mm | - | - | - |
| 1788516820 | 6.11° C | 82% | 1005.9 hPa | 0 mm | - | - | - |
| 1788516520 | 6.11° C | 81% | 1005.7 hPa | 0 mm | - | - | - |
| 1788516220 | 6.11° C | 78% | 1005.5 hPa | 0 mm | - | - | - |
| 1788515890 | 7.22° C | 78% | 1005.5 hPa | 0 mm | - | - | - |
| 1788515590 | 7.78° C | 82% | 1005.4 hPa | 0 mm | - | - | - |
| 1788515260 | 7.22° C | 81% | 1005.1 hPa | 0 mm | - | - | - |
| 1788514960 | 7.22° C | 81% | 1005.2 hPa | 0 mm | - | - | - |
| 1788514630 | 7.22° C | 78% | 1005.1 hPa | 0 mm | - | - | - |
| 1788514300 | 8.33° C | 82% | 1005.1 hPa | 0 mm | - | - | - |
| 1788513970 | 7.78° C | 80% | 1005 hPa | 0 mm | - | - | - |
| 1788513670 | 7.78° C | 79% | 1004.9 hPa | 0 mm | - | - | - |
| 1788513348 | 7.22° C | 80% | 1004.8 hPa | 0 mm | - | - | - |
| 1788513010 | 7.22° C | 75% | 1004.8 hPa | 0 mm | - | - | - |
| 1788512710 | 7.78° C | 76% | 1004.8 hPa | 0 mm | - | - | - |
| 1788512410 | 7.78° C | 76% | 1004.7 hPa | 0 mm | - | - | - |
* Rain latest hour (hover to see other rain measurements)
** Current wind speed in m/s (hover to see current wind gust speed)